owner,sensor,date,latitude,longitude,sea_surface_height_above_sea_level,qcFlag 
COMPS,ioos:station:USF.COMPS:TAR:1,2008-01-29T00:00:00Z,28.1560,-82.7580,-0.168,1111122 
COMPS,ioos:station:USF.COMPS:TAR:1,2008-01-29T00:06:00Z,28.1560,-82.7580,-0.167,1111122 
COMPS,ioos:station:USF.COMPS:TAR:1,2008-01-29T00:12:00Z,28.1560,-82.7580,-0.166,1111122 
COMPS,ioos:station:USF.COMPS:TAR:1,2008-01-29T00:18:00Z,28.1560,-82.7580,-0.166,1111122 
COMPS,ioos:station:USF.COMPS:TAR:1,2008-01-29T00:24:00Z,28.1560,-82.7580,-0.166,1111122 
COMPS,ioos:station:USF.COMPS:TAR:1,2008-01-29T00:30:00Z,28.1560,-82.7580,-0.166,1111122 
COMPS,ioos:station:USF.COMPS:TAR:1,2008-01-29T00:36:00Z,28.1560,-82.7580,-0.165,1111122 
COMPS,ioos:station:USF.COMPS:TAR:1,2008-01-29T00:42:00Z,28.1560,-82.7580,-0.166,1111122 
COMPS,ioos:station:USF.COMPS:TAR:1,2008-01-29T00:48:00Z,28.1560,-82.7580,-0.166,1111122 
COMPS,ioos:station:USF.COMPS:TAR:1,2008-01-29T00:54:00Z,28.1560,-82.7580,-0.165,1111122 
COMPS,ioos:station:USF.COMPS:TAR:1,2008-01-29T01:00:00Z,28.1560,-82.7580,-0.166,1111122 
COMPS,ioos:station:USF.COMPS:TAR:1,2008-01-29T01:06:00Z,28.1560,-82.7580,-0.166,1111122 
COMPS,ioos:station:USF.COMPS:TAR:1,2008-01-29T01:12:00Z,28.1560,-82.7580,-0.166,1111122 
COMPS,ioos:station:USF.COMPS:TAR:1,2008-01-29T01:18:00Z,28.1560,-82.7580,-0.166,1111122 
COMPS,ioos:station:USF.COMPS:TAR:1,2008-01-29T01:24:00Z,28.1560,-82.7580,-0.167,1111122 
COMPS,ioos:station:USF.COMPS:TAR:1,2008-01-29T01:30:00Z,28.1560,-82.7580,-0.167,1111122 
COMPS,ioos:station:USF.COMPS:TAR:1,2008-01-29T01:36:00Z,28.1560,-82.7580,-0.167,1111122 
COMPS,ioos:station:USF.COMPS:TAR:1,2008-01-29T01:42:00Z,28.1560,-82.7580,-0.167,1111122 
COMPS,ioos:station:USF.COMPS:TAR:1,2008-01-29T01:48:00Z,28.1560,-82.7580,-0.167,1111122 
COMPS,ioos:station:USF.COMPS:TAR:1,2008-01-29T01:54:00Z,28.1560,-82.7580,-0.168,1111122 
COMPS,ioos:station:USF.COMPS:TAR:1,2008-01-29T02:00:00Z,28.1560,-82.7580,-0.168,1111122 
COMPS,ioos:station:USF.COMPS:TAR:1,2008-01-29T02:06:00Z,28.1560,-82.7580,-0.17,1111122 
COMPS,ioos:station:USF.COMPS:TAR:1,2008-01-29T02:12:00Z,28.1560,-82.7580,-0.171,1111122 
COMPS,ioos:station:USF.COMPS:TAR:1,2008-01-29T02:18:00Z,28.1560,-82.7580,-0.171,1111122 
COMPS,ioos:station:USF.COMPS:TAR:1,2008-01-29T02:24:00Z,28.1560,-82.7580,-0.172,1111122 
COMPS,ioos:station:USF.COMPS:TAR:1,2008-01-29T02:30:00Z,28.1560,-82.7580,-0.172,1111122 
COMPS,ioos:station:USF.COMPS:TAR:1,2008-01-29T02:36:00Z,28.1560,-82.7580,-0.172,1111122 
COMPS,ioos:station:USF.COMPS:TAR:1,2008-01-29T02:42:00Z,28.1560,-82.7580,-0.173,1111122 
COMPS,ioos:station:USF.COMPS:TAR:1,2008-01-29T02:48:00Z,28.1560,-82.7580,-0.175,1111122 
COMPS,ioos:station:USF.COMPS:TAR:1,2008-01-29T02:54:00Z,28.1560,-82.7580,-0.177,1111122 
COMPS,ioos:station:USF.COMPS:TAR:1,2008-01-29T03:00:00Z,28.1560,-82.7580,-0.177,1111122 
COMPS,ioos:station:USF.COMPS:TAR:1,2008-01-29T03:06:00Z,28.1560,-82.7580,-0.178,1111122 
COMPS,ioos:station:USF.COMPS:TAR:1,2008-01-29T03:12:00Z,28.1560,-82.7580,-0.18,1111122 
COMPS,ioos:station:USF.COMPS:TAR:1,2008-01-29T03:18:00Z,28.1560,-82.7580,-0.182,1111122 
COMPS,ioos:station:USF.COMPS:TAR:1,2008-01-29T03:24:00Z,28.1560,-82.7580,-0.185,1111122 
COMPS,ioos:station:USF.COMPS:TAR:1,2008-01-29T03:30:00Z,28.1560,-82.7580,-0.185,1111122 
COMPS,ioos:station:USF.COMPS:TAR:1,2008-01-29T03:36:00Z,28.1560,-82.7580,-0.186,1111122 
COMPS,ioos:station:USF.COMPS:TAR:1,2008-01-29T03:42:00Z,28.1560,-82.7580,-0.187,1111122 
COMPS,ioos:station:USF.COMPS:TAR:1,2008-01-29T03:48:00Z,28.1560,-82.7580,-0.187,1111122 
COMPS,ioos:station:USF.COMPS:TAR:1,2008-01-29T03:54:00Z,28.1560,-82.7580,-0.188,1111122 
COMPS,ioos:station:USF.COMPS:TAR:1,2008-01-29T04:00:00Z,28.1560,-82.7580,-0.189,1111122 
COMPS,ioos:station:USF.COMPS:TAR:1,2008-01-29T04:06:00Z,28.1560,-82.7580,-0.19,1111122 
COMPS,ioos:station:USF.COMPS:TAR:1,2008-01-29T04:12:00Z,28.1560,-82.7580,-0.192,1111122 
COMPS,ioos:station:USF.COMPS:TAR:1,2008-01-29T04:18:00Z,28.1560,-82.7580,-0.193,1111122 
COMPS,ioos:station:USF.COMPS:TAR:1,2008-01-29T04:24:00Z,28.1560,-82.7580,-0.194,1111122 
COMPS,ioos:station:USF.COMPS:TAR:1,2008-01-29T04:30:00Z,28.1560,-82.7580,-0.195,1111122 
COMPS,ioos:station:USF.COMPS:TAR:1,2008-01-29T04:36:00Z,28.1560,-82.7580,-0.196,1111122 
COMPS,ioos:station:USF.COMPS:TAR:1,2008-01-29T04:42:00Z,28.1560,-82.7580,-0.196,1111122 
COMPS,ioos:station:USF.COMPS:TAR:1,2008-01-29T04:48:00Z,28.1560,-82.7580,-0.196,1111122 
COMPS,ioos:station:USF.COMPS:TAR:1,2008-01-29T04:54:00Z,28.1560,-82.7580,-0.197,1111122 
COMPS,ioos:station:USF.COMPS:TAR:1,2008-01-29T05:00:00Z,28.1560,-82.7580,-0.198,1111122 
COMPS,ioos:station:USF.COMPS:TAR:1,2008-01-29T05:06:00Z,28.1560,-82.7580,-0.199,1111122 
COMPS,ioos:station:USF.COMPS:TAR:1,2008-01-29T05:12:00Z,28.1560,-82.7580,-0.2,1111122 
COMPS,ioos:station:USF.COMPS:TAR:1,2008-01-29T05:18:00Z,28.1560,-82.7580,-0.201,1111122 
COMPS,ioos:station:USF.COMPS:TAR:1,2008-01-29T05:24:00Z,28.1560,-82.7580,-0.201,1111122 
COMPS,ioos:station:USF.COMPS:TAR:1,2008-01-29T05:30:00Z,28.1560,-82.7580,-0.202,1111122 
COMPS,ioos:station:USF.COMPS:TAR:1,2008-01-29T05:36:00Z,28.1560,-82.7580,-0.203,1111122 
COMPS,ioos:station:USF.COMPS:TAR:1,2008-01-29T05:42:00Z,28.1560,-82.7580,-0.203,1111122 
COMPS,ioos:station:USF.COMPS:TAR:1,2008-01-29T05:48:00Z,28.1560,-82.7580,-0.203,1111122 
COMPS,ioos:station:USF.COMPS:TAR:1,2008-01-29T05:54:00Z,28.1560,-82.7580,-0.204,1111122 
COMPS,ioos:station:USF.COMPS:TAR:1,2008-01-29T06:00:00Z,28.1560,-82.7580,-0.204,1111122 
COMPS,ioos:station:USF.COMPS:TAR:1,2008-01-29T06:06:00Z,28.1560,-82.7580,-0.205,1111122 
COMPS,ioos:station:USF.COMPS:TAR:1,2008-01-29T06:12:00Z,28.1560,-82.7580,-0.205,1111122 
COMPS,ioos:station:USF.COMPS:TAR:1,2008-01-29T06:18:00Z,28.1560,-82.7580,-0.205,1111122 
COMPS,ioos:station:USF.COMPS:TAR:1,2008-01-29T06:24:00Z,28.1560,-82.7580,-0.206,1111122 
COMPS,ioos:station:USF.COMPS:TAR:1,2008-01-29T06:30:00Z,28.1560,-82.7580,-0.206,1111122 
COMPS,ioos:station:USF.COMPS:TAR:1,2008-01-29T06:36:00Z,28.1560,-82.7580,-0.206,1111122 
COMPS,ioos:station:USF.COMPS:TAR:1,2008-01-29T06:42:00Z,28.1560,-82.7580,-0.207,1111122 
COMPS,ioos:station:USF.COMPS:TAR:1,2008-01-29T06:48:00Z,28.1560,-82.7580,-0.206,1111122 
COMPS,ioos:station:USF.COMPS:TAR:1,2008-01-29T06:54:00Z,28.1560,-82.7580,-0.206,1111122 
COMPS,ioos:station:USF.COMPS:TAR:1,2008-01-29T07:00:00Z,28.1560,-82.7580,-0.207,1111122 
COMPS,ioos:station:USF.COMPS:TAR:1,2008-01-29T07:06:00Z,28.1560,-82.7580,-0.207,1111122 
COMPS,ioos:station:USF.COMPS:TAR:1,2008-01-29T07:12:00Z,28.1560,-82.7580,-0.207,1111122 
COMPS,ioos:station:USF.COMPS:TAR:1,2008-01-29T07:18:00Z,28.1560,-82.7580,-0.207,1111122 
COMPS,ioos:station:USF.COMPS:TAR:1,2008-01-29T07:24:00Z,28.1560,-82.7580,-0.207,1111122 
COMPS,ioos:station:USF.COMPS:TAR:1,2008-01-29T07:30:00Z,28.1560,-82.7580,-0.207,1111122 
COMPS,ioos:station:USF.COMPS:TAR:1,2008-01-29T07:36:00Z,28.1560,-82.7580,-0.206,1111122 
COMPS,ioos:station:USF.COMPS:TAR:1,2008-01-29T07:42:00Z,28.1560,-82.7580,-0.205,1111122 
COMPS,ioos:station:USF.COMPS:TAR:1,2008-01-29T07:48:00Z,28.1560,-82.7580,-0.205,1111122 
COMPS,ioos:station:USF.COMPS:TAR:1,2008-01-29T07:54:00Z,28.1560,-82.7580,-0.205,1111122 
COMPS,ioos:station:USF.COMPS:TAR:1,2008-01-29T08:00:00Z,28.1560,-82.7580,-0.204,1111122 
COMPS,ioos:station:USF.COMPS:TAR:1,2008-01-29T08:06:00Z,28.1560,-82.7580,-0.204,1111122 
COMPS,ioos:station:USF.COMPS:TAR:1,2008-01-29T08:12:00Z,28.1560,-82.7580,-0.204,1111122 
COMPS,ioos:station:USF.COMPS:TAR:1,2008-01-29T08:18:00Z,28.1560,-82.7580,-0.203,1111122 
COMPS,ioos:station:USF.COMPS:TAR:1,2008-01-29T08:24:00Z,28.1560,-82.7580,-0.203,1111122 
COMPS,ioos:station:USF.COMPS:TAR:1,2008-01-29T08:30:00Z,28.1560,-82.7580,-0.202,1111122 
COMPS,ioos:station:USF.COMPS:TAR:1,2008-01-29T08:36:00Z,28.1560,-82.7580,-0.201,1111122 
COMPS,ioos:station:USF.COMPS:TAR:1,2008-01-29T08:42:00Z,28.1560,-82.7580,-0.201,1111122 
COMPS,ioos:station:USF.COMPS:TAR:1,2008-01-29T08:48:00Z,28.1560,-82.7580,-0.2,1111122 
COMPS,ioos:station:USF.COMPS:TAR:1,2008-01-29T08:54:00Z,28.1560,-82.7580,-0.2,1111122 
COMPS,ioos:station:USF.COMPS:TAR:1,2008-01-29T09:00:00Z,28.1560,-82.7580,-0.2,1111122 
COMPS,ioos:station:USF.COMPS:TAR:1,2008-01-29T09:06:00Z,28.1560,-82.7580,-0.199,1111122 
COMPS,ioos:station:USF.COMPS:TAR:1,2008-01-29T09:12:00Z,28.1560,-82.7580,-0.199,1111122 
COMPS,ioos:station:USF.COMPS:TAR:1,2008-01-29T09:18:00Z,28.1560,-82.7580,-0.199,1111122 
COMPS,ioos:station:USF.COMPS:TAR:1,2008-01-29T09:24:00Z,28.1560,-82.7580,-0.198,1111122 
COMPS,ioos:station:USF.COMPS:TAR:1,2008-01-29T09:30:00Z,28.1560,-82.7580,-0.198,1111122 
COMPS,ioos:station:USF.COMPS:TAR:1,2008-01-29T09:36:00Z,28.1560,-82.7580,-0.198,1111122 
COMPS,ioos:station:USF.COMPS:TAR:1,2008-01-29T09:42:00Z,28.1560,-82.7580,-0.197,1111122 
COMPS,ioos:station:USF.COMPS:TAR:1,2008-01-29T09:48:00Z,28.1560,-82.7580,-0.196,1111122 
COMPS,ioos:station:USF.COMPS:TAR:1,2008-01-29T09:54:00Z,28.1560,-82.7580,-0.196,1111122 
COMPS,ioos:station:USF.COMPS:TAR:1,2008-01-29T10:00:00Z,28.1560,-82.7580,-0.196,1111122 
COMPS,ioos:station:USF.COMPS:TAR:1,2008-01-29T10:06:00Z,28.1560,-82.7580,-0.196,1111122 
COMPS,ioos:station:USF.COMPS:TAR:1,2008-01-29T10:12:00Z,28.1560,-82.7580,-0.195,1111122 
COMPS,ioos:station:USF.COMPS:TAR:1,2008-01-29T10:18:00Z,28.1560,-82.7580,-0.195,1111122 
COMPS,ioos:station:USF.COMPS:TAR:1,2008-01-29T10:24:00Z,28.1560,-82.7580,-0.195,1111122 
COMPS,ioos:station:USF.COMPS:TAR:1,2008-01-29T10:30:00Z,28.1560,-82.7580,-0.194,1111122 
COMPS,ioos:station:USF.COMPS:TAR:1,2008-01-29T10:36:00Z,28.1560,-82.7580,-0.194,1111122 
COMPS,ioos:station:USF.COMPS:TAR:1,2008-01-29T10:42:00Z,28.1560,-82.7580,-0.194,1111122 
COMPS,ioos:station:USF.COMPS:TAR:1,2008-01-29T10:48:00Z,28.1560,-82.7580,-0.195,1111122 
COMPS,ioos:station:USF.COMPS:TAR:1,2008-01-29T10:54:00Z,28.1560,-82.7580,-0.194,1111122 
COMPS,ioos:station:USF.COMPS:TAR:1,2008-01-29T11:00:00Z,28.1560,-82.7580,-0.194,1111122 
COMPS,ioos:station:USF.COMPS:TAR:1,2008-01-29T11:06:00Z,28.1560,-82.7580,-0.194,1111122 
COMPS,ioos:station:USF.COMPS:TAR:1,2008-01-29T11:12:00Z,28.1560,-82.7580,-0.194,1111122 
COMPS,ioos:station:USF.COMPS:TAR:1,2008-01-29T11:18:00Z,28.1560,-82.7580,-0.194,1111122 
COMPS,ioos:station:USF.COMPS:TAR:1,2008-01-29T11:24:00Z,28.1560,-82.7580,-0.194,1111122 
COMPS,ioos:station:USF.COMPS:TAR:1,2008-01-29T11:30:00Z,28.1560,-82.7580,-0.194,1111122 
COMPS,ioos:station:USF.COMPS:TAR:1,2008-01-29T11:36:00Z,28.1560,-82.7580,-0.194,1111122 
COMPS,ioos:station:USF.COMPS:TAR:1,2008-01-29T11:42:00Z,28.1560,-82.7580,-0.195,1111122 
COMPS,ioos:station:USF.COMPS:TAR:1,2008-01-29T11:48:00Z,28.1560,-82.7580,-0.195,1111122 
COMPS,ioos:station:USF.COMPS:TAR:1,2008-01-29T11:54:00Z,28.1560,-82.7580,-0.195,1111122 
COMPS,ioos:station:USF.COMPS:TAR:1,2008-01-29T12:00:00Z,28.1560,-82.7580,-0.195,1111122 
COMPS,ioos:station:USF.COMPS:TAR:1,2008-01-29T12:06:00Z,28.1560,-82.7580,-0.195,1111122 
COMPS,ioos:station:USF.COMPS:TAR:1,2008-01-29T12:12:00Z,28.1560,-82.7580,-0.195,1111122 
COMPS,ioos:station:USF.COMPS:TAR:1,2008-01-29T12:18:00Z,28.1560,-82.7580,-0.196,1111122 
COMPS,ioos:station:USF.COMPS:TAR:1,2008-01-29T12:24:00Z,28.1560,-82.7580,-0.196,1111122 
COMPS,ioos:station:USF.COMPS:TAR:1,2008-01-29T12:30:00Z,28.1560,-82.7580,-0.196,1111122 
COMPS,ioos:station:USF.COMPS:TAR:1,2008-01-29T12:36:00Z,28.1560,-82.7580,-0.196,1111122 
COMPS,ioos:station:USF.COMPS:TAR:1,2008-01-29T12:42:00Z,28.1560,-82.7580,-0.196,1111122 
COMPS,ioos:station:USF.COMPS:TAR:1,2008-01-29T12:48:00Z,28.1560,-82.7580,-0.196,1111122 
COMPS,ioos:station:USF.COMPS:TAR:1,2008-01-29T12:54:00Z,28.1560,-82.7580,-0.195,1111122 
COMPS,ioos:station:USF.COMPS:TAR:1,2008-01-29T13:00:00Z,28.1560,-82.7580,-0.193,1111122 
COMPS,ioos:station:USF.COMPS:TAR:1,2008-01-29T13:06:00Z,28.1560,-82.7580,-0.193,1111122 
COMPS,ioos:station:USF.COMPS:TAR:1,2008-01-29T13:12:00Z,28.1560,-82.7580,-0.196,1111122 
COMPS,ioos:station:USF.COMPS:TAR:1,2008-01-29T13:18:00Z,28.1560,-82.7580,-0.198,1111122 
COMPS,ioos:station:USF.COMPS:TAR:1,2008-01-29T13:24:00Z,28.1560,-82.7580,-0.197,1111122 
COMPS,ioos:station:USF.COMPS:TAR:1,2008-01-29T13:30:00Z,28.1560,-82.7580,-0.197,1111122 
COMPS,ioos:station:USF.COMPS:TAR:1,2008-01-29T13:36:00Z,28.1560,-82.7580,-0.198,1111122 
COMPS,ioos:station:USF.COMPS:TAR:1,2008-01-29T13:42:00Z,28.1560,-82.7580,-0.2,1111122 
COMPS,ioos:station:USF.COMPS:TAR:1,2008-01-29T13:48:00Z,28.1560,-82.7580,-0.201,1111122 
COMPS,ioos:station:USF.COMPS:TAR:1,2008-01-29T13:54:00Z,28.1560,-82.7580,-0.2,1111122 
COMPS,ioos:station:USF.COMPS:TAR:1,2008-01-29T14:00:00Z,28.1560,-82.7580,-0.199,1111122 
COMPS,ioos:station:USF.COMPS:TAR:1,2008-01-29T14:06:00Z,28.1560,-82.7580,-0.196,1111122 
COMPS,ioos:station:USF.COMPS:TAR:1,2008-01-29T14:12:00Z,28.1560,-82.7580,-0.194,1111122 
COMPS,ioos:station:USF.COMPS:TAR:1,2008-01-29T14:18:00Z,28.1560,-82.7580,-0.192,1111122 
COMPS,ioos:station:USF.COMPS:TAR:1,2008-01-29T14:24:00Z,28.1560,-82.7580,-0.191,1111122 
COMPS,ioos:station:USF.COMPS:TAR:1,2008-01-29T14:30:00Z,28.1560,-82.7580,-0.192,1111122 
COMPS,ioos:station:USF.COMPS:TAR:1,2008-01-29T14:36:00Z,28.1560,-82.7580,-0.192,1111122 
COMPS,ioos:station:USF.COMPS:TAR:1,2008-01-29T14:42:00Z,28.1560,-82.7580,-0.192,1111122 
COMPS,ioos:station:USF.COMPS:TAR:1,2008-01-29T14:48:00Z,28.1560,-82.7580,-0.192,1111122 
COMPS,ioos:station:USF.COMPS:TAR:1,2008-01-29T14:54:00Z,28.1560,-82.7580,-0.193,1111122 
COMPS,ioos:station:USF.COMPS:TAR:1,2008-01-29T15:00:00Z,28.1560,-82.7580,-0.193,1111122 
COMPS,ioos:station:USF.COMPS:TAR:1,2008-01-29T15:06:00Z,28.1560,-82.7580,-0.194,1111122 
COMPS,ioos:station:USF.COMPS:TAR:1,2008-01-29T15:12:00Z,28.1560,-82.7580,-0.194,1111122 
COMPS,ioos:station:USF.COMPS:TAR:1,2008-01-29T15:18:00Z,28.1560,-82.7580,-0.194,1111122 
COMPS,ioos:station:USF.COMPS:TAR:1,2008-01-29T15:24:00Z,28.1560,-82.7580,-0.194,1111122 
COMPS,ioos:station:USF.COMPS:TAR:1,2008-01-29T15:30:00Z,28.1560,-82.7580,-0.194,1111122 
COMPS,ioos:station:USF.COMPS:TAR:1,2008-01-29T15:36:00Z,28.1560,-82.7580,-0.195,1111122 
COMPS,ioos:station:USF.COMPS:TAR:1,2008-01-29T15:42:00Z,28.1560,-82.7580,-0.196,1111122 
COMPS,ioos:station:USF.COMPS:TAR:1,2008-01-29T15:48:00Z,28.1560,-82.7580,-0.196,1111122 
COMPS,ioos:station:USF.COMPS:TAR:1,2008-01-29T15:54:00Z,28.1560,-82.7580,-0.196,1111122 
COMPS,ioos:station:USF.COMPS:TAR:1,2008-01-29T16:00:00Z,28.1560,-82.7580,-0.196,1111122 
COMPS,ioos:station:USF.COMPS:TAR:1,2008-01-29T16:06:00Z,28.1560,-82.7580,-0.197,1111122 
COMPS,ioos:station:USF.COMPS:TAR:1,2008-01-29T16:12:00Z,28.1560,-82.7580,-0.198,1111122 
COMPS,ioos:station:USF.COMPS:TAR:1,2008-01-29T16:18:00Z,28.1560,-82.7580,-0.199,1111122 
COMPS,ioos:station:USF.COMPS:TAR:1,2008-01-29T16:24:00Z,28.1560,-82.7580,-0.2,1111122 
COMPS,ioos:station:USF.COMPS:TAR:1,2008-01-29T16:30:00Z,28.1560,-82.7580,-0.202,1111122 
COMPS,ioos:station:USF.COMPS:TAR:1,2008-01-29T16:36:00Z,28.1560,-82.7580,-0.204,1111122 
COMPS,ioos:station:USF.COMPS:TAR:1,2008-01-29T16:42:00Z,28.1560,-82.7580,-0.205,1111122 
COMPS,ioos:station:USF.COMPS:TAR:1,2008-01-29T16:48:00Z,28.1560,-82.7580,-0.206,1111122 
COMPS,ioos:station:USF.COMPS:TAR:1,2008-01-29T16:54:00Z,28.1560,-82.7580,-0.206,1111122 
COMPS,ioos:station:USF.COMPS:TAR:1,2008-01-29T17:00:00Z,28.1560,-82.7580,-0.207,1111122 
COMPS,ioos:station:USF.COMPS:TAR:1,2008-01-29T17:06:00Z,28.1560,-82.7580,-0.207,1111122 
COMPS,ioos:station:USF.COMPS:TAR:1,2008-01-29T17:12:00Z,28.1560,-82.7580,-0.207,1111122 
COMPS,ioos:station:USF.COMPS:TAR:1,2008-01-29T17:18:00Z,28.1560,-82.7580,-0.207,1111122 
COMPS,ioos:station:USF.COMPS:TAR:1,2008-01-29T17:24:00Z,28.1560,-82.7580,-0.206,1111122 
COMPS,ioos:station:USF.COMPS:TAR:1,2008-01-29T17:30:00Z,28.1560,-82.7580,-0.205,1111122 
COMPS,ioos:station:USF.COMPS:TAR:1,2008-01-29T17:36:00Z,28.1560,-82.7580,-0.204,1111122 
COMPS,ioos:station:USF.COMPS:TAR:1,2008-01-29T17:42:00Z,28.1560,-82.7580,-0.203,1111122 
COMPS,ioos:station:USF.COMPS:TAR:1,2008-01-29T17:48:00Z,28.1560,-82.7580,-0.202,1111122 
COMPS,ioos:station:USF.COMPS:TAR:1,2008-01-29T17:54:00Z,28.1560,-82.7580,-0.201,1111122 
COMPS,ioos:station:USF.COMPS:TAR:1,2008-01-29T18:00:00Z,28.1560,-82.7580,-0.201,1111122 
COMPS,ioos:station:USF.COMPS:TAR:1,2008-01-29T18:06:00Z,28.1560,-82.7580,-0.2,1111122 
COMPS,ioos:station:USF.COMPS:TAR:1,2008-01-29T18:12:00Z,28.1560,-82.7580,-0.201,1111122 
COMPS,ioos:station:USF.COMPS:TAR:1,2008-01-29T18:18:00Z,28.1560,-82.7580,-0.199,1111122 
COMPS,ioos:station:USF.COMPS:TAR:1,2008-01-29T18:24:00Z,28.1560,-82.7580,-0.2,1111122 
COMPS,ioos:station:USF.COMPS:TAR:1,2008-01-29T18:30:00Z,28.1560,-82.7580,-0.2,1111122 
COMPS,ioos:station:USF.COMPS:TAR:1,2008-01-29T18:36:00Z,28.1560,-82.7580,-0.196,1111122 
COMPS,ioos:station:USF.COMPS:TAR:1,2008-01-29T18:42:00Z,28.1560,-82.7580,-0.193,1111122 
COMPS,ioos:station:USF.COMPS:TAR:1,2008-01-29T18:48:00Z,28.1560,-82.7580,-0.193,1111122 
COMPS,ioos:station:USF.COMPS:TAR:1,2008-01-29T18:54:00Z,28.1560,-82.7580,-0.194,1111122 
COMPS,ioos:station:USF.COMPS:TAR:1,2008-01-29T19:00:00Z,28.1560,-82.7580,-0.194,1111122 
COMPS,ioos:station:USF.COMPS:TAR:1,2008-01-29T19:06:00Z,28.1560,-82.7580,-0.194,1111122 
COMPS,ioos:station:USF.COMPS:TAR:1,2008-01-29T19:12:00Z,28.1560,-82.7580,-0.192,1111122 
COMPS,ioos:station:USF.COMPS:TAR:1,2008-01-29T19:18:00Z,28.1560,-82.7580,-0.19,1111122 
COMPS,ioos:station:USF.COMPS:TAR:1,2008-01-29T19:24:00Z,28.1560,-82.7580,-0.188,1111122 
COMPS,ioos:station:USF.COMPS:TAR:1,2008-01-29T19:30:00Z,28.1560,-82.7580,-0.187,1111122 
COMPS,ioos:station:USF.COMPS:TAR:1,2008-01-29T19:36:00Z,28.1560,-82.7580,-0.186,1111122 
COMPS,ioos:station:USF.COMPS:TAR:1,2008-01-29T19:42:00Z,28.1560,-82.7580,-0.185,1111122 
COMPS,ioos:station:USF.COMPS:TAR:1,2008-01-29T19:48:00Z,28.1560,-82.7580,-0.184,1111122 
COMPS,ioos:station:USF.COMPS:TAR:1,2008-01-29T19:54:00Z,28.1560,-82.7580,-0.182,1111122 
COMPS,ioos:station:USF.COMPS:TAR:1,2008-01-29T20:00:00Z,28.1560,-82.7580,-0.179,1111122 
COMPS,ioos:station:USF.COMPS:TAR:1,2008-01-29T20:06:00Z,28.1560,-82.7580,-0.175,1111122 
COMPS,ioos:station:USF.COMPS:TAR:1,2008-01-29T20:12:00Z,28.1560,-82.7580,-0.171,1111122 
COMPS,ioos:station:USF.COMPS:TAR:1,2008-01-29T20:18:00Z,28.1560,-82.7580,-0.167,1111122 
COMPS,ioos:station:USF.COMPS:TAR:1,2008-01-29T20:24:00Z,28.1560,-82.7580,-0.165,1111122 
COMPS,ioos:station:USF.COMPS:TAR:1,2008-01-29T20:30:00Z,28.1560,-82.7580,-0.165,1111122 
COMPS,ioos:station:USF.COMPS:TAR:1,2008-01-29T20:36:00Z,28.1560,-82.7580,-0.162,1111122 
COMPS,ioos:station:USF.COMPS:TAR:1,2008-01-29T20:42:00Z,28.1560,-82.7580,-0.159,1111122 
COMPS,ioos:station:USF.COMPS:TAR:1,2008-01-29T20:48:00Z,28.1560,-82.7580,-0.157,1111122 
COMPS,ioos:station:USF.COMPS:TAR:1,2008-01-29T20:54:00Z,28.1560,-82.7580,-0.155,1111122 
COMPS,ioos:station:USF.COMPS:TAR:1,2008-01-29T21:00:00Z,28.1560,-82.7580,-0.152,1111122 
COMPS,ioos:station:USF.COMPS:TAR:1,2008-01-29T21:06:00Z,28.1560,-82.7580,-0.148,1111122 
COMPS,ioos:station:USF.COMPS:TAR:1,2008-01-29T21:12:00Z,28.1560,-82.7580,-0.145,1111122 
COMPS,ioos:station:USF.COMPS:TAR:1,2008-01-29T21:18:00Z,28.1560,-82.7580,-0.143,1111122 
COMPS,ioos:station:USF.COMPS:TAR:1,2008-01-29T21:24:00Z,28.1560,-82.7580,-0.139,1111122 
COMPS,ioos:station:USF.COMPS:TAR:1,2008-01-29T21:30:00Z,28.1560,-82.7580,-0.136,1111122 
COMPS,ioos:station:USF.COMPS:TAR:1,2008-01-29T21:36:00Z,28.1560,-82.7580,-0.135,1111122 
COMPS,ioos:station:USF.COMPS:TAR:1,2008-01-29T21:42:00Z,28.1560,-82.7580,-0.135,1111122 
COMPS,ioos:station:USF.COMPS:TAR:1,2008-01-29T21:48:00Z,28.1560,-82.7580,-0.133,1111122 
COMPS,ioos:station:USF.COMPS:TAR:1,2008-01-29T21:54:00Z,28.1560,-82.7580,-0.13,1111122 
COMPS,ioos:station:USF.COMPS:TAR:1,2008-01-29T22:00:00Z,28.1560,-82.7580,-0.128,1111122 
COMPS,ioos:station:USF.COMPS:TAR:1,2008-01-29T22:06:00Z,28.1560,-82.7580,-0.125,1111122 
COMPS,ioos:station:USF.COMPS:TAR:1,2008-01-29T22:12:00Z,28.1560,-82.7580,-0.121,1111122 
COMPS,ioos:station:USF.COMPS:TAR:1,2008-01-29T22:18:00Z,28.1560,-82.7580,-0.118,1111122 
COMPS,ioos:station:USF.COMPS:TAR:1,2008-01-29T22:24:00Z,28.1560,-82.7580,-0.114,1111122 
COMPS,ioos:station:USF.COMPS:TAR:1,2008-01-29T22:30:00Z,28.1560,-82.7580,-0.11,1111122 
COMPS,ioos:station:USF.COMPS:TAR:1,2008-01-29T22:36:00Z,28.1560,-82.7580,-0.107,1111122 
COMPS,ioos:station:USF.COMPS:TAR:1,2008-01-29T22:42:00Z,28.1560,-82.7580,-0.105,1111122 
COMPS,ioos:station:USF.COMPS:TAR:1,2008-01-29T22:48:00Z,28.1560,-82.7580,-0.102,1111122 
COMPS,ioos:station:USF.COMPS:TAR:1,2008-01-29T22:54:00Z,28.1560,-82.7580,-0.099,1111122 
COMPS,ioos:station:USF.COMPS:TAR:1,2008-01-29T23:00:00Z,28.1560,-82.7580,-0.097,1111122 
COMPS,ioos:station:USF.COMPS:TAR:1,2008-01-29T23:06:00Z,28.1560,-82.7580,-0.094,1111122 
COMPS,ioos:station:USF.COMPS:TAR:1,2008-01-29T23:12:00Z,28.1560,-82.7580,-0.092,1111122 
COMPS,ioos:station:USF.COMPS:TAR:1,2008-01-29T23:18:00Z,28.1560,-82.7580,-0.091,1111122 
COMPS,ioos:station:USF.COMPS:TAR:1,2008-01-29T23:24:00Z,28.1560,-82.7580,-0.089,1111122 
COMPS,ioos:station:USF.COMPS:TAR:1,2008-01-29T23:30:00Z,28.1560,-82.7580,-0.087,1111122 
COMPS,ioos:station:USF.COMPS:TAR:1,2008-01-29T23:36:00Z,28.1560,-82.7580,-0.085,1111122 
COMPS,ioos:station:USF.COMPS:TAR:1,2008-01-29T23:42:00Z,28.1560,-82.7580,-0.084,1111122 
COMPS,ioos:station:USF.COMPS:TAR:1,2008-01-29T23:48:00Z,28.1560,-82.7580,-0.082,1111122 
COMPS,ioos:station:USF.COMPS:TAR:1,2008-01-29T23:54:00Z,28.1560,-82.7580,-0.081,1111122 
COMPS,ioos:station:USF.COMPS:TAR:1,2008-01-30T00:00:00Z,28.1560,-82.7580,-0.08,1111122 
COMPS,ioos:station:USF.COMPS:TAR:1,2008-01-30T00:06:00Z,28.1560,-82.7580,-0.078,1111122 
COMPS,ioos:station:USF.COMPS:TAR:1,2008-01-30T00:12:00Z,28.1560,-82.7580,-0.077,1111122 
COMPS,ioos:station:USF.COMPS:TAR:1,2008-01-30T00:18:00Z,28.1560,-82.7580,-0.076,1111122 
COMPS,ioos:station:USF.COMPS:TAR:1,2008-01-30T00:24:00Z,28.1560,-82.7580,-0.075,1111122 
COMPS,ioos:station:USF.COMPS:TAR:1,2008-01-30T00:30:00Z,28.1560,-82.7580,-0.075,1111122 
COMPS,ioos:station:USF.COMPS:TAR:1,2008-01-30T00:36:00Z,28.1560,-82.7580,-0.074,1111122 
COMPS,ioos:station:USF.COMPS:TAR:1,2008-01-30T00:42:00Z,28.1560,-82.7580,-0.073,1111122 
COMPS,ioos:station:USF.COMPS:TAR:1,2008-01-30T00:48:00Z,28.1560,-82.7580,-0.072,1111122 
COMPS,ioos:station:USF.COMPS:TAR:1,2008-01-30T00:54:00Z,28.1560,-82.7580,-0.072,1111122 
COMPS,ioos:station:USF.COMPS:TAR:1,2008-01-30T01:00:00Z,28.1560,-82.7580,-0.071,1111122 
COMPS,ioos:station:USF.COMPS:TAR:1,2008-01-30T01:06:00Z,28.1560,-82.7580,-0.07,1111122 
COMPS,ioos:station:USF.COMPS:TAR:1,2008-01-30T01:12:00Z,28.1560,-82.7580,-0.07,1111122 
COMPS,ioos:station:USF.COMPS:TAR:1,2008-01-30T01:18:00Z,28.1560,-82.7580,-0.069,1111122 
COMPS,ioos:station:USF.COMPS:TAR:1,2008-01-30T01:24:00Z,28.1560,-82.7580,-0.069,1111122 
COMPS,ioos:station:USF.COMPS:TAR:1,2008-01-30T01:30:00Z,28.1560,-82.7580,-0.069,1111122 
COMPS,ioos:station:USF.COMPS:TAR:1,2008-01-30T01:36:00Z,28.1560,-82.7580,-0.068,1111122 
COMPS,ioos:station:USF.COMPS:TAR:1,2008-01-30T01:42:00Z,28.1560,-82.7580,-0.069,1111122 
COMPS,ioos:station:USF.COMPS:TAR:1,2008-01-30T01:48:00Z,28.1560,-82.7580,-0.068,1111122 
COMPS,ioos:station:USF.COMPS:TAR:1,2008-01-30T01:54:00Z,28.1560,-82.7580,-0.068,1111122 
COMPS,ioos:station:USF.COMPS:TAR:1,2008-01-30T02:00:00Z,28.1560,-82.7580,-0.068,1111122 
COMPS,ioos:station:USF.COMPS:TAR:1,2008-01-30T02:06:00Z,28.1560,-82.7580,-0.068,1111122 
COMPS,ioos:station:USF.COMPS:TAR:1,2008-01-30T02:12:00Z,28.1560,-82.7580,-0.068,1111122 
COMPS,ioos:station:USF.COMPS:TAR:1,2008-01-30T02:18:00Z,28.1560,-82.7580,-0.069,1111122 
COMPS,ioos:station:USF.COMPS:TAR:1,2008-01-30T02:24:00Z,28.1560,-82.7580,-0.069,1111122 
COMPS,ioos:station:USF.COMPS:TAR:1,2008-01-30T02:30:00Z,28.1560,-82.7580,-0.07,1111122 
COMPS,ioos:station:USF.COMPS:TAR:1,2008-01-30T02:36:00Z,28.1560,-82.7580,-0.07,1111122 
COMPS,ioos:station:USF.COMPS:TAR:1,2008-01-30T02:42:00Z,28.1560,-82.7580,-0.071,1111122 
COMPS,ioos:station:USF.COMPS:TAR:1,2008-01-30T02:48:00Z,28.1560,-82.7580,-0.071,1111122 